| time (UTC) | temp F | wind direction | speed MPH | gust MPH | rain 1hr in | rain 24hr in | rain mn in | humidity % | barometer mb |
| 20260506120023 | 76 | 360 | 9.0 | 15.0 | 0.00 | 0.00 | 0.00 | 94 | 1010.5 |
| 20260506114523 | 76 | 360 | 8.0 | 12.0 | 0.00 | 0.00 | 0.00 | 94 | 1010.2 |
| 20260506113020 | 76 | 360 | 8.0 | 12.0 | 0.00 | 0.00 | 0.00 | 94 | 1010.1 |
| 20260506111519 | 76 | 138 | 6.0 | 9.0 | 0.00 | 0.00 | 0.00 | 94 | 1010.1 |
| 20260506110018 | 76 | 129 | 7.0 | 11.0 | 0.00 | 0.00 | 0.00 | 94 | 1010.1 |
| 20260506104539 | 76 | 140 | 8.0 | 14.0 | 0.00 | 0.00 | 0.00 | 94 | 1010.1 |
| 20260506103017 | 76 | 360 | 8.0 | 15.0 | 0.00 | 0.00 | 0.00 | 94 | 1009.9 |
| 20260506101517 | 76 | 143 | 7.0 | 12.0 | 0.00 | 0.00 | 0.00 | 94 | 1009.7 |
| 20260506100017 | 76 | 126 | 7.0 | 10.0 | 0.00 | 0.00 | 0.00 | 94 | 1009.8 |
| 20260506094514 | 76 | 360 | 6.0 | 12.0 | 0.00 | 0.00 | 0.00 | 94 | 1010.0 |
| 20260506093014 | 76 | 122 | 9.0 | 14.0 | 0.00 | 0.00 | 0.00 | 94 | 1009.9 |
| 20260506091513 | 76 | 360 | 8.0 | 12.0 | 0.00 | 0.00 | 0.00 | 94 | 1010.1 |
| 20260506090012 | 76 | 155 | 10.0 | 13.0 | 0.00 | 0.00 | 0.00 | 93 | 1010.1 |
| 20260506084510 | 76 | 140 | 9.0 | 13.0 | 0.00 | 0.00 | 0.00 | 93 | 1010.2 |
| 20260506083021 | 76 | 161 | 9.0 | 13.0 | 0.00 | 0.00 | 0.00 | 93 | 1010.4 |
| 20260506081509 | 76 | 129 | 6.0 | 10.0 | 0.00 | 0.00 | 0.00 | 93 | 1010.3 |
| 20260506073006 | 76 | 137 | 10.0 | 15.0 | 0.00 | 0.00 | 0.00 | 93 | 1010.6 |
| 20260506071506 | 76 | 166 | 10.0 | 14.0 | 0.00 | 0.00 | 0.00 | 93 | 1010.6 |
| 20260506061557 | 76 | 142 | 11.0 | 18.0 | 0.00 | 0.00 | 0.00 | 93 | 1010.7 |
| 20260506044556 | 76 | 139 | 16.0 | 22.0 | 0.00 | 0.00 | 0.00 | 92 | 1010.8 |
| 20260506043053 | 76 | 144 | 16.0 | 23.0 | 0.00 | 0.00 | 0.00 | 92 | 1010.7 |
| 20260506041547 | 76 | 165 | 17.0 | 22.0 | 0.00 | 0.00 | 0.00 | 92 | 1010.7 |
| 20260506040050 | 76 | 145 | 18.0 | 28.0 | 0.00 | 0.00 | 0.00 | 92 | 1010.6 |
| 20260506034546 | 76 | 137 | 19.0 | 26.0 | 0.00 | 0.00 | 0.00 | 92 | 1010.6 |
| 20260506033044 | 76 | 161 | 19.0 | 27.0 | 0.00 | 0.00 | 0.00 | 92 | 1010.8 |
| 20260506031546 | 76 | 360 | 18.0 | 26.0 | 0.00 | 0.00 | 0.00 | 92 | 1010.6 |
| 20260506030043 | 76 | 164 | 19.0 | 25.0 | 0.00 | 0.00 | 0.00 | 92 | 1010.5 |
| 20260506024546 | 76 | 171 | 17.0 | 23.0 | 0.00 | 0.00 | 0.00 | 92 | 1010.3 |
| 20260506023041 | 76 | 360 | 17.0 | 22.0 | 0.00 | 0.00 | 0.00 | 92 | 1010.1 |
| 20260506021553 | 76 | 150 | 16.0 | 21.0 | 0.00 | 0.00 | 0.00 | 92 | 1009.8 |
| 20260506020041 | 77 | 143 | 16.0 | 19.0 | 0.00 | 0.00 | 0.00 | 92 | 1009.7 |
| 20260506014540 | 76 | 141 | 14.0 | 20.0 | 0.00 | 0.00 | 0.00 | 92 | 1009.4 |
| 20260506013044 | 76 | 122 | 15.0 | 21.0 | 0.00 | 0.00 | 0.00 | 92 | 1009.3 |
| 20260506011545 | 76 | 360 | 17.0 | 22.0 | 0.00 | 0.00 | 0.00 | 92 | 1009.0 |
| 20260506010047 | 77 | 155 | 15.0 | 20.0 | 0.00 | 0.00 | 0.00 | 92 | 1009.0 |
| 20260506004538 | 77 | 157 | 17.0 | 24.0 | 0.00 | 0.00 | 0.00 | 91 | 1009.0 |
| 20260506003038 | 77 | 144 | 14.0 | 22.0 | 0.00 | 0.00 | 0.00 | 91 | 1009.0 |
| 20260506001537 | 77 | 145 | 18.0 | 25.0 | 0.00 | 0.00 | 0.00 | 91 | 1008.8 |
| 20260506000038 | 77 | 140 | 15.0 | 20.0 | 0.00 | 0.00 | 0.00 | 91 | 1008.9 |
| 20260505234559 | 77 | 142 | 16.0 | 20.0 | 0.00 | 0.00 | 0.00 | 90 | 1009.1 |
| 20260505233035 | 77 | 161 | 16.0 | 21.0 | 0.00 | 0.00 | 0.00 | 90 | 1009.2 |
| 20260505231534 | 77 | 151 | 16.0 | 23.0 | 0.00 | 0.00 | 0.00 | 89 | 1009.1 |
| 20260505230033 | 78 | 113 | 16.0 | 22.0 | 0.00 | 0.00 | 0.00 | 89 | 1009.2 |
| 20260505224533 | 78 | 135 | 15.0 | 20.0 | 0.00 | 0.00 | 0.00 | 89 | 1009.2 |
| 20260505223032 | 78 | 177 | 14.0 | 20.0 | 0.00 | 0.00 | 0.00 | 88 | 1009.3 |
| 20260505221531 | 78 | 149 | 14.0 | 21.0 | 0.00 | 0.00 | 0.00 | 88 | 1009.2 |
| 20260505220030 | 78 | 192 | 14.0 | 21.0 | 0.00 | 0.00 | 0.00 | 88 | 1009.4 |
| 20260505214536 | 79 | 169 | 14.0 | 20.0 | 0.00 | 0.00 | 0.00 | 87 | 1009.3 |
| 20260505213027 | 79 | 178 | 13.0 | 21.0 | 0.00 | 0.00 | 0.00 | 88 | 1009.6 |
| 20260505211538 | 79 | 154 | 14.0 | 20.0 | 0.00 | 0.00 | 0.00 | 87 | 1009.8 |
| 20260505210025 | 79 | 151 | 15.0 | 21.0 | 0.00 | 0.00 | 0.00 | 87 | 1010.1 |
| 20260505204525 | 79 | 156 | 15.0 | 20.0 | 0.00 | 0.00 | 0.00 | 86 | 1010.1 |
| 20260505203025 | 79 | 121 | 16.0 | 21.0 | 0.00 | 0.00 | 0.00 | 86 | 1010.4 |
| 20260505201522 | 79 | 167 | 15.0 | 20.0 | 0.00 | 0.00 | 0.00 | 86 | 1010.4 |
| 20260505200021 | 79 | 163 | 15.0 | 22.0 | 0.00 | 0.00 | 0.00 | 86 | 1010.6 |
| 20260505194519 | 79 | 157 | 15.0 | 22.0 | 0.00 | 0.00 | 0.00 | 86 | 1010.4 |
| 20260505193018 | 79 | 167 | 15.0 | 23.0 | 0.00 | 0.00 | 0.00 | 86 | 1010.4 |
| 20260505191517 | 79 | 161 | 17.0 | 25.0 | 0.00 | 0.00 | 0.00 | 87 | 1010.5 |
| 20260505190016 | 78 | 180 | 16.0 | 23.0 | 0.00 | 0.00 | 0.00 | 87 | 1010.6 |
| 20260505184524 | 78 | 186 | 16.0 | 21.0 | 0.00 | 0.00 | 0.00 | 88 | 1010.7 |
| 20260505183014 | 78 | 112 | 14.0 | 20.0 | 0.00 | 0.00 | 0.00 | 87 | 1011.1 |
| 20260505181514 | 78 | 173 | 14.0 | 20.0 | 0.00 | 0.00 | 0.00 | 86 | 1011.0 |
| 20260505180012 | 78 | 166 | 14.0 | 24.0 | 0.00 | 0.00 | 0.00 | 86 | 1011.1 |
| 20260505174512 | 78 | 146 | 16.0 | 25.0 | 0.00 | 0.00 | 0.00 | 86 | 1011.3 |
| 20260505173014 | 78 | 169 | 17.0 | 25.0 | 0.00 | 0.00 | 0.00 | 86 | 1011.3 |
| 20260505171511 | 78 | 360 | 15.0 | 22.0 | 0.00 | 0.00 | 0.00 | 86 | 1011.4 |
| 20260505170012 | 78 | 360 | 15.0 | 22.0 | 0.00 | 0.00 | 0.00 | 85 | 1011.4 |
| 20260505164510 | 78 | 173 | 15.0 | 22.0 | 0.00 | 0.00 | 0.00 | 85 | 1011.4 |
| 20260505163009 | 78 | 360 | 15.0 | 26.0 | 0.00 | 0.00 | 0.00 | 85 | 1011.1 |
| 20260505161508 | 78 | 191 | 16.0 | 24.0 | 0.00 | 0.00 | 0.00 | 85 | 1011.2 |
| 20260505153003 | 77 | 194 | 17.0 | 25.0 | 0.00 | 0.00 | 0.00 | 86 | 1010.8 |
| 20260505151501 | 77 | 163 | 15.0 | 22.0 | 0.00 | 0.00 | 0.00 | 86 | 1010.8 |
| 20260505150104 | 77 | 166 | 15.0 | 20.0 | 0.00 | 0.00 | 0.00 | 86 | 1011.0 |
| 20260505140106 | 77 | 173 | 16.0 | 21.0 | 0.00 | 0.00 | 0.00 | 86 | 1010.9 |
| 20260505124539 | 75 | 191 | 18.0 | 26.0 | 0.00 | 0.00 | 0.00 | 87 | 1010.6 |
| 20260505123035 | 75 | 191 | 17.0 | 26.0 | 0.00 | 0.00 | 0.00 | 88 | 1010.7 |
| 20260505121537 | 75 | 173 | 18.0 | 26.0 | 0.00 | 0.00 | 0.00 | 88 | 1010.7 |